Time,TemperatureF,DewpointF,PressureIn,WindDirection,WindDirectionDegrees,WindSpeedMPH,WindSpeedGustMPH,Humidity,HourlyPrecipIn,Conditions,Clouds,dailyrainin,SoftwareType,DateUTC
2013-05-26 00:11:00,50.9,48.0,30.32,SSE,152,0.0,0.0,88,0.00,,,0.01,weatherlink.com 1.10,2013-05-26 04:11:00,
2013-05-26 00:26:00,51.1,48.0,30.32,SSE,152,0.0,0.0,90,0.00,,,0.01,weatherlink.com 1.10,2013-05-26 04:26:00,
2013-05-26 00:41:00,51.0,48.0,30.33,SSE,152,0.0,0.0,89,0.00,,,0.01,weatherlink.com 1.10,2013-05-26 04:41:00,
2013-05-26 00:56:00,50.8,48.0,30.33,SSE,152,0.0,0.0,90,0.00,,,0.01,weatherlink.com 1.10,2013-05-26 04:56:00,
2013-05-26 01:11:00,50.7,48.0,30.33,SSE,152,0.0,0.0,89,0.00,,,0.01,weatherlink.com 1.10,2013-05-26 05:11:00,
2013-05-26 01:26:00,50.8,48.0,30.33,SSE,152,0.0,0.0,89,0.00,,,0.01,weatherlink.com 1.10,2013-05-26 05:26:00,
2013-05-26 01:41:00,50.8,48.0,30.32,SSE,152,0.0,1.0,90,0.00,,,0.01,weatherlink.com 1.10,2013-05-26 05:41:00,
2013-05-26 02:11:00,50.6,48.0,30.32,SSE,152,0.0,0.0,92,0.00,,,0.01,weatherlink.com 1.10,2013-05-26 06:11:00,
2013-05-26 02:26:00,50.5,48.0,30.32,SSE,152,0.0,0.0,92,0.00,,,0.01,weatherlink.com 1.10,2013-05-26 06:26:00,
2013-05-26 02:41:00,50.4,49.0,30.31,SSE,152,0.0,0.0,93,0.00,,,0.01,weatherlink.com 1.10,2013-05-26 06:41:00,
2013-05-26 02:56:00,50.2,48.0,30.31,SSE,152,0.0,0.0,93,0.00,,,0.01,weatherlink.com 1.10,2013-05-26 06:56:00,
2013-05-26 03:11:00,50.0,48.0,30.31,SSE,152,0.0,1.0,94,0.00,,,0.01,weatherlink.com 1.10,2013-05-26 07:11:00,
2013-05-26 03:26:00,50.0,48.0,30.30,SSE,152,0.0,1.0,94,0.00,,,0.00,weatherlink.com 1.10,2013-05-26 07:26:00,
2013-05-26 03:41:00,49.9,48.0,30.30,NNE,22,1.0,1.0,94,0.00,,,0.00,weatherlink.com 1.10,2013-05-26 07:41:00,
2013-05-26 03:56:00,50.0,48.0,30.31,SSE,152,2.0,2.0,94,0.00,,,0.00,weatherlink.com 1.10,2013-05-26 07:56:00,
2013-05-26 04:11:00,49.9,49.0,30.31,SSE,153,0.0,1.0,95,0.00,,,0.00,weatherlink.com 1.10,2013-05-26 08:11:00,
2013-05-26 04:26:00,49.8,48.0,30.31,NE,54,1.0,1.0,94,0.00,,,0.00,weatherlink.com 1.10,2013-05-26 08:26:00,
2013-05-26 04:41:00,49.9,48.0,30.31,ENE,66,0.0,2.0,94,0.00,,,0.00,weatherlink.com 1.10,2013-05-26 08:41:00,
2013-05-26 04:56:00,49.7,48.0,30.32,East,97,0.0,1.0,95,0.00,,,0.00,weatherlink.com 1.10,2013-05-26 08:56:00,
2013-05-26 05:12:00,49.7,48.0,30.31,East,96,0.0,0.0,95,0.00,,,0.00,weatherlink.com 1.10,2013-05-26 09:12:00,
2013-05-26 05:42:00,49.4,48.0,30.31,East,93,1.0,1.0,95,0.00,,,0.00,weatherlink.com 1.10,2013-05-26 09:42:00,
2013-05-26 05:57:00,49.4,48.0,30.31,ENE,75,0.0,1.0,95,0.00,,,0.00,weatherlink.com 1.10,2013-05-26 09:57:00,
2013-05-26 06:12:00,49.3,48.0,30.31,ENE,75,0.0,0.0,95,0.00,,,0.00,weatherlink.com 1.10,2013-05-26 10:12:00,
2013-05-26 06:27:00,49.2,48.0,30.31,ENE,75,0.0,1.0,95,0.00,,,0.00,weatherlink.com 1.10,2013-05-26 10:27:00,
2013-05-26 06:42:00,49.2,48.0,30.31,ENE,76,0.0,0.0,95,0.00,,,0.00,weatherlink.com 1.10,2013-05-26 10:42:00,
2013-05-26 06:57:00,49.4,48.0,30.32,ENE,76,0.0,0.0,96,0.00,,,0.00,weatherlink.com 1.10,2013-05-26 10:57:00,
2013-05-26 07:12:00,49.8,49.0,30.32,ENE,76,0.0,0.0,96,0.00,,,0.00,weatherlink.com 1.10,2013-05-26 11:12:00,
2013-05-26 07:27:00,50.2,49.0,30.32,SSE,150,1.0,1.0,95,0.00,,,0.00,weatherlink.com 1.10,2013-05-26 11:27:00,
2013-05-26 07:42:00,50.7,49.0,30.32,WSW,238,0.0,1.0,94,0.00,,,0.00,weatherlink.com 1.10,2013-05-26 11:42:00,
2013-05-26 07:57:00,51.3,49.0,30.32,SE,145,0.0,1.0,93,0.00,,,0.00,weatherlink.com 1.10,2013-05-26 11:57:00,
2013-05-26 08:12:00,52.2,49.0,30.32,West,259,1.0,4.0,90,0.00,,,0.00,weatherlink.com 1.10,2013-05-26 12:12:00,
2013-05-26 08:27:00,53.0,50.0,30.33,SSE,155,0.0,2.0,89,0.00,,,0.00,weatherlink.com 1.10,2013-05-26 12:27:00,
2013-05-26 08:42:00,54.3,51.0,30.33,South,184,0.0,3.0,88,0.00,,,0.00,weatherlink.com 1.10,2013-05-26 12:42:00,
2013-05-26 08:57:00,55.3,50.0,30.34,SW,235,2.0,3.0,83,0.00,,,0.00,weatherlink.com 1.10,2013-05-26 12:57:00,
2013-05-26 09:13:00,55.9,49.0,30.34,SSE,156,1.0,3.0,78,0.00,,,0.00,weatherlink.com 1.10,2013-05-26 13:13:00,
2013-05-26 09:27:00,56.1,47.0,30.34,SSE,156,1.0,4.0,71,0.00,,,0.00,weatherlink.com 1.10,2013-05-26 13:27:00,
2013-05-26 09:42:00,56.7,47.0,30.34,South,170,0.0,3.0,71,0.00,,,0.00,weatherlink.com 1.10,2013-05-26 13:42:00,
2013-05-26 09:57:00,58.4,45.0,30.33,NE,53,0.0,2.0,62,0.00,,,0.00,weatherlink.com 1.10,2013-05-26 13:57:00,
2013-05-26 10:12:00,60.0,47.0,30.33,South,186,3.0,3.0,62,0.00,,,0.00,weatherlink.com 1.10,2013-05-26 14:12:00,
2013-05-26 10:27:00,60.8,47.0,30.33,SSE,166,1.0,6.0,61,0.00,,,0.00,weatherlink.com 1.10,2013-05-26 14:27:00,
2013-05-26 10:42:00,62.2,47.0,30.32,South,173,1.0,4.0,57,0.00,,,0.00,weatherlink.com 1.10,2013-05-26 14:42:00,
2013-05-26 10:57:00,62.5,46.0,30.32,NNE,29,0.0,5.0,55,0.00,,,0.00,weatherlink.com 1.10,2013-05-26 14:57:00,
2013-05-26 11:12:00,62.2,48.0,30.33,NW,318,1.0,5.0,60,0.00,,,0.00,weatherlink.com 1.10,2013-05-26 15:12:00,
2013-05-26 11:27:00,63.9,47.0,30.32,WSW,253,3.0,7.0,55,0.00,,,0.00,weatherlink.com 1.10,2013-05-26 15:27:00,
2013-05-26 11:42:00,64.0,48.0,30.33,South,181,4.0,8.0,57,0.00,,,0.00,weatherlink.com 1.10,2013-05-26 15:42:00,
2013-05-26 11:58:00,65.2,49.0,30.32,SE,127,2.0,4.0,56,0.00,,,0.00,weatherlink.com 1.10,2013-05-26 15:58:00,
2013-05-26 12:13:00,64.5,49.0,30.32,ENE,70,1.0,6.0,57,0.00,,,0.00,weatherlink.com 1.10,2013-05-26 16:13:00,
2013-05-26 12:28:00,64.5,48.0,30.32,ENE,67,3.0,6.0,56,0.00,,,0.00,weatherlink.com 1.10,2013-05-26 16:28:00,
2013-05-26 12:43:00,64.6,48.0,30.32,ESE,116,2.0,3.0,56,0.00,,,0.00,weatherlink.com 1.10,2013-05-26 16:43:00,
2013-05-26 12:58:00,66.0,49.0,30.31,SW,233,2.0,7.0,55,0.00,,,0.00,weatherlink.com 1.10,2013-05-26 16:58:00,
2013-05-26 13:13:00,67.3,51.0,30.30,NE,40,3.0,8.0,56,0.00,,,0.00,weatherlink.com 1.10,2013-05-26 17:13:00,
2013-05-26 13:28:00,66.4,49.0,30.30,NE,53,4.0,6.0,53,0.00,,,0.00,weatherlink.com 1.10,2013-05-26 17:28:00,
2013-05-26 13:43:00,66.2,48.0,30.30,NNE,18,0.0,8.0,53,0.00,,,0.00,weatherlink.com 1.10,2013-05-26 17:43:00,
2013-05-26 13:58:00,67.3,48.0,30.29,North,359,1.0,7.0,50,0.00,,,0.00,weatherlink.com 1.10,2013-05-26 17:58:00,
2013-05-26 14:13:00,68.8,52.0,30.29,NNE,25,3.0,5.0,55,0.00,,,0.00,weatherlink.com 1.10,2013-05-26 18:13:00,
2013-05-26 14:28:00,67.6,48.0,30.29,NNW,336,0.0,5.0,49,0.00,,,0.00,weatherlink.com 1.10,2013-05-26 18:28:00,
2013-05-26 14:43:00,68.1,52.0,30.28,ENE,65,4.0,5.0,57,0.00,,,0.00,weatherlink.com 1.10,2013-05-26 18:43:00,
2013-05-26 14:58:00,68.1,50.0,30.28,ENE,65,5.0,9.0,53,0.00,,,0.00,weatherlink.com 1.10,2013-05-26 18:58:00,
2013-05-26 15:13:00,66.5,51.0,30.28,NE,39,6.0,8.0,57,0.00,,,0.00,weatherlink.com 1.10,2013-05-26 19:13:00,
2013-05-26 15:28:00,66.9,51.0,30.27,NW,316,1.0,12.0,57,0.00,,,0.00,weatherlink.com 1.10,2013-05-26 19:28:00,
2013-05-26 15:43:00,67.5,50.0,30.27,NNE,25,6.0,9.0,54,0.00,,,0.00,weatherlink.com 1.10,2013-05-26 19:43:00,
2013-05-26 15:58:00,67.0,51.0,30.27,ENE,70,4.0,12.0,56,0.00,,,0.00,weatherlink.com 1.10,2013-05-26 19:58:00,
2013-05-26 16:13:00,67.8,50.0,30.26,NE,47,5.0,10.0,54,0.00,,,0.00,weatherlink.com 1.10,2013-05-26 20:13:00,
2013-05-26 16:28:00,66.3,50.0,30.27,NNE,32,2.0,6.0,56,0.00,,,0.00,weatherlink.com 1.10,2013-05-26 20:28:00,
2013-05-26 16:43:00,65.0,50.0,30.26,NE,44,2.0,7.0,58,0.00,,,0.00,weatherlink.com 1.10,2013-05-26 20:43:00,
2013-05-26 16:58:00,66.0,52.0,30.26,NE,41,0.0,5.0,60,0.00,,,0.00,weatherlink.com 1.10,2013-05-26 20:58:00,
2013-05-26 17:13:00,66.5,52.0,30.26,ENE,57,3.0,7.0,61,0.00,,,0.00,weatherlink.com 1.10,2013-05-26 21:13:00,
2013-05-26 17:28:00,66.7,51.0,30.25,NE,47,3.0,5.0,57,0.00,,,0.00,weatherlink.com 1.10,2013-05-26 21:28:00,
2013-05-26 17:43:00,67.1,51.0,30.26,NNE,25,2.0,9.0,57,0.00,,,0.00,weatherlink.com 1.10,2013-05-26 21:43:00,
2013-05-26 17:58:00,66.9,52.0,30.26,NE,54,2.0,8.0,60,0.00,,,0.00,weatherlink.com 1.10,2013-05-26 21:58:00,
2013-05-26 18:13:00,66.0,51.0,30.25,NE,53,0.0,6.0,58,0.00,,,0.00,weatherlink.com 1.10,2013-05-26 22:13:00,
2013-05-26 18:28:00,66.6,51.0,30.25,North,356,5.0,7.0,58,0.00,,,0.00,weatherlink.com 1.10,2013-05-26 22:28:00,
2013-05-26 18:43:00,66.2,51.0,30.25,NNW,330,2.0,7.0,58,0.00,,,0.00,weatherlink.com 1.10,2013-05-26 22:43:00,
2013-05-26 18:58:00,65.5,51.0,30.25,ENE,71,1.0,4.0,59,0.00,,,0.00,weatherlink.com 1.10,2013-05-26 22:58:00,
2013-05-26 19:13:00,64.4,50.0,30.25,NNE,19,2.0,4.0,60,0.00,,,0.00,weatherlink.com 1.10,2013-05-26 23:13:00,
2013-05-26 19:28:00,64.0,50.0,30.26,ENE,67,2.0,4.0,60,0.00,,,0.00,weatherlink.com 1.10,2013-05-26 23:28:00,
2013-05-26 19:43:00,63.6,51.0,30.26,East,87,0.0,2.0,63,0.00,,,0.00,weatherlink.com 1.10,2013-05-26 23:43:00,
2013-05-26 19:58:00,62.2,51.0,30.25,NW,321,0.0,1.0,67,0.00,,,0.00,weatherlink.com 1.10,2013-05-26 23:58:00,
2013-05-26 20:13:00,61.1,50.0,30.25,NE,37,0.0,1.0,68,0.00,,,0.00,weatherlink.com 1.10,2013-05-27 00:13:00,
2013-05-26 20:28:00,60.0,51.0,30.25,NE,37,0.0,1.0,71,0.00,,,0.00,weatherlink.com 1.10,2013-05-27 00:28:00,
2013-05-26 20:43:00,59.2,50.0,30.25,NE,37,0.0,1.0,72,0.00,,,0.00,weatherlink.com 1.10,2013-05-27 00:43:00,
2013-05-26 20:58:00,58.1,50.0,30.25,NE,37,1.0,1.0,74,0.00,,,0.00,weatherlink.com 1.10,2013-05-27 00:58:00,
2013-05-26 21:28:00,55.8,50.0,30.25,NE,34,0.0,1.0,80,0.00,,,0.00,weatherlink.com 1.10,2013-05-27 01:28:00,
2013-05-26 21:43:00,55.0,50.0,30.25,NE,34,0.0,0.0,82,0.00,,,0.00,weatherlink.com 1.10,2013-05-27 01:43:00,
2013-05-26 21:58:00,54.4,50.0,30.25,NE,36,0.0,1.0,84,0.00,,,0.00,weatherlink.com 1.10,2013-05-27 01:58:00,
2013-05-26 22:13:00,54.1,49.0,30.25,NE,36,0.0,0.0,84,0.00,,,0.00,weatherlink.com 1.10,2013-05-27 02:13:00,
2013-05-26 22:28:00,53.7,49.0,30.26,NE,36,0.0,0.0,85,0.00,,,0.00,weatherlink.com 1.10,2013-05-27 02:28:00,
2013-05-26 22:43:00,53.1,49.0,30.26,NE,36,0.0,0.0,87,0.00,,,0.00,weatherlink.com 1.10,2013-05-27 02:43:00,
2013-05-26 22:58:00,53.2,50.0,30.26,NE,36,0.0,0.0,88,0.00,,,0.00,weatherlink.com 1.10,2013-05-27 02:58:00,
2013-05-26 23:13:00,53.4,50.0,30.26,NE,36,0.0,0.0,88,0.00,,,0.00,weatherlink.com 1.10,2013-05-27 03:13:00,
2013-05-26 23:28:00,53.4,50.0,30.27,NE,36,0.0,0.0,88,0.00,,,0.00,weatherlink.com 1.10,2013-05-27 03:28:00,
2013-05-26 23:43:00,53.2,50.0,30.27,NE,36,0.0,1.0,90,0.00,,,0.00,weatherlink.com 1.10,2013-05-27 03:43:00,
2013-05-26 23:58:00,52.5,50.0,30.27,SSE,152,0.0,0.0,90,0.00,,,0.00,weatherlink.com 1.10,2013-05-27 03:58:00,